星链-1027 (STARLINK-1027 )

导读 | 星芒AI

STARLINK-1027 是 SpaceX 星链计划中的一颗低轨通信卫星,属于第 10 批部署的星链卫星群。该卫星于 2021 年 5 月 28 日由猎鹰 9 号火箭从肯尼迪航天中心发射升空,运行在约 550 公里的轨道高度,旨在为全球提供高速互联网服务。作为星链星座的一部分,STARLINK-1027 采用先进通信技术,支持宽带接入,并具备自动避碰功能以确保太空安全。

基本信息
目录编号:
44732
目录名称:
STARLINK-1027
国际标识:
2019-074V
轨道中心:
EARTH
卫星名称:
星链-1027
卫星全名:
星链-1027 (STARLINK-1027 )
卫星状态:
已陨落 最后检测时间 2025-04-27
发射日期:
2019-11-11 UTC
国别 :
美国 (US)
星等 :
--
轨道信息
数据来源 国际轨道数据
星历时间: 2025-04-27T12:35:57+0800
轨道信息已过期185天
半长轴: 6525.431km
偏心率: 0.0003787
轨道倾角: 53.019°
近地点辐角 219.266°
升交点赤经 130.603°
平近点角 190.071°
近地点: 144.824km
远地点: 149.768km
周期: 87.433分钟
每日圈数: 16.469826
详细信息
固有亮度:
5
最大亮度:
2.5
卫星平台:
Starlink V1.0
覆盖范围:
全球
运营商:
太空探索技术公司
运营商所在国:
美国
制造商(研发单位):
太空探索技术公司
制造商所在国:
美国
使用方式:
暂无
卫星简介
星链(Starlink)计划是由太空探索技术公司(SpaceX)提出的一个巨型低轨卫星互联网星座项目,计划在2019年至2024年间在太空搭建由约1.2万颗卫星组成的“星链”网络,其中1584颗将部署在地球上空550千米处的近地轨道,并从2020年开始工作。该卫星仍在工作。